Погода Уст-Хайрюзово

Погода Уст-Хайрюзово : погода сейчас, прогноз погоды и архив. Всё, что Вы хотите узнать о погоде Уст-Хайрюзово!

Поиск расширенной информации на нашем сайте:

Другие новости

Новости СМИ2

Главная страница сайта

Новости сайта

03.07.2017

Напоминаем, что на нашем специализированном сайте Метеоцентр.Азия вы можете получить высокодетализированные автоматические прогнозы погоды по пунктам России, СНГ и мира в авиационном формате (включающие направление и скорость ветра, видимость, явления погоды, количество и форму облачности, нижнюю и верхнюю границу облачности).


Погода Уст-Хайрюзово - сегодня

Время (UTC), дата Ветер
(°,м/с) 
Видим.   Явления Облачность Т
(°С)
Тd
(°С)
f(%) Тe
(°С)
Pmin
(гПа)
dP
(гПа)
Po
(мм)
O2
(г/м3)
Тmin Tmax R s Состояние
почвы
09 16.01.18 190 (Ю) 6{10}  10 км  слаб. ливневой снег  10/10 400 м кучево-дожд. 
[Cb cap]
-11.6 -14.3 80 -17  1001.1  1.2  750  317    -6.9  0.5     
12 16.01.18 140 (ЮВ) 10 км  слаб. ливневой снег  10/10 360 м кучево-дожд. 
[Cb cap]
-12.4 -14.6 84 -17  1002  0.9  751  318           
18 16.01.18 150 (ЮВ) 20000 м  {ливн. осадки}  5/5 600 м 
[Sc diur, vesp]
-12.1 -14.2 84 -15  1005  1.5  753  319           
21 16.01.18 150 (ЮВ) 4000 м  слаб. ливневой снег  10/10 210 м кучево-дожд. 
[Cb cap]
-13.1 -15.3 84 -17  1006.3  1.2  754  320  -15    51  равномерный
сухой снег
100% 
00 17.01.18 170 (Ю) 4000 м  слаб. ливневой снег  10/10 210 м кучево-дожд. 
[Cb cap]
-13.3 -15.5 83 -17  1007.3  755  321           
03 17.01.18 180 (Ю) 4000 м  слаб. ливневой снег  9/9 210 м кучево-дожд. 
[Cb cap]
-13.2 -15.5 83 -17  1007.8  0.5  755  321           
06 17.01.18 150 (ЮВ) 20000 м  {ливн. осадки}  8/6 720 м средняя 
[Sc diur, vesp|Ac trans]
-14.3 -16.6 83 -18  1008.6  0.5  756  323           
09 17.01.18 180 (Ю) 20000 м    10/10 870 м 
[Sc]
-12.6 -14.6 85 -17  1009.9  1.3  757  321    -12.5     
12 17.01.18 160 (Ю) 7-11{11}  4000 м  слаб. ливневой снег  10/10 300 м кучево-дожд. 
[Cb cap]
-11 -13.1 84 -17  1009.1  -0.8  756  319           
15 17.01.18 300 (СЗ) 5{11}  20000 м  позёмок{ливн. осадки}  8/8 1080 м 
[Sc diur, vesp]
-8.7 -11.4 81 -13  1009.6  -0.8  756  316           
18 17.01.18 030 (СВ) 4{12}  20000 м  позёмок{ливн. осадки}  9/9 930 м 
[Sc]
-10.9 -14.1 77 -15  1013.4  3.8  759  320           
21 17.01.18 180 (Ю) 20000 м    4/4 1000 м 
[Sc diur, vesp]
-16 -18.6 80 -18  1015  1.6  760  327  -16    0.0  53  равномерный
сухой снег
100% 
00 18.01.18 140 (ЮВ) 10 км  слаб. ливневой снег  9/9 420 м кучево-дожд. 
[Cb cap]
-12.6 -15.7 78 -15  1015.9  0.9  761  323  -16.8         
03 18.01.18 130 (ЮВ) 20000 м  слаб. ливневой снег  10/10 330 м кучево-дожд. 
[Cb cap]
-10.9 -13.2 83 -13  1016.1  0.2  761  321           
06 18.01.18 190 (Ю) 20000 м  в посл. час ливневой снег  9/9 840 м 
[Sc diur, vesp]
-10.9 -13.8 79 -15  1017.1  762  321           
09 18.01.18 140 (ЮВ) 10 км  слаб. ливневой снег  10/10 210 м кучево-дожд. 
[Cb cap]
-15 -17.3 83 -20  1017.7  0.5  762  327    -10.1  0.4     
12 18.01.18 150 (ЮВ) 20000 м  {ливн. осадки}  3/3 1000 м 
[Sc diur, vesp]
-22.9 -26 76 -28  1018.6  0.9  763  337           
15 18.01.18 150 (ЮВ) 20000 м    ясно 
-20.9 -23.8 77 -25  1018.9  0.2  763  335           
18 18.01.18 150 (ЮВ) 20000 м    ясно 
-25.6 -29.1 73 -29  1019.5  0.6  764  341           
21 18.01.18 150 (ЮВ) 20000 м    ясно 
-25.5 -29 73 -31  1019.8  0.3  764  341  -25.6    0.0  52  равномерный
сухой снег
100% 
00 19.01.18 160 (Ю) 20000 м    ясно 
-25.1 -28.5 73 -26  1020.2  0.4  764  341  -27.3         
03 19.01.18 350 (С) 20000 м    ясно 
-20.3 -23.3 77 -21  1018.9  -1.3  763  334           
06 19.01.18 050 (СВ) 20000 м    3/0 средняя 
[Ac trans]
-18.5 -21.4 78 -19  1018.7  -0.2  763  332           
09 19.01.18 030 (СВ) 20000 м    ясно 
-17.9 -21.1 76 -23  1018.7  763  331    -16.5       
12 19.01.18 020 (С) 8-11{11}  20000 м  позёмок  8/0 средняя 
[Ac As]
-15.7 -19 76 -23  1017.4  -1.2  762  327           
Время (UTC), дата Ветер
(°,м/с) 
Видим.   Явления Облачность Т
(°С)
Тd
(°С)
f(%) Тe
(°С)
Pmin
(гПа)
dP
(гПа)
Po
(мм)
O2
(г/м3)
Тmin Tmax R s Состояние
почвы

Для получения пояснительной информации подведите курсор к названию столбца.

ПОГОДА Уст-Хайрюзово - архив

Всё, что Вы хотите узнать о погоде Уст-Хайрюзово - удобно и подробно!

Выберите нужную дату (начиная с 1 января 2015* года) и нажмите кнопку "Найти".
Будут отображены архивные сводки погоды по пункту Уст-Хайрюзово, начиная с указанной даты.


Отображать данные в формате CSV (для использования в таблицах Excel)


Внимание! Наш архив погоды предназначен исключительно для личного некоммерческого использования в познавательных целях. Если Вам необходимы официальные справки о состоянии погоды (для производственных, юридических, коммерческих и т.п. целей), обращайтесь в органы Росгидромета.

*Примечание: данная дата относится к архиву по метеостанциям СССР (Россия, СНГ, Балтия).
Архив по метеостанциям Зарубежной Европы и Азии (кроме Китая) хранится 10 дней, по другим регионам земного шара (Китай, Африка, Америка, Австралия, Океания) - 1 день.

Уст-Хайрюзово - район местоположения метеостанции


Название, широта, долгота, высота метеостанции:
Уст-Хайрюзово 57.1°ш. 156.8°д. 3 м над ур. моря [Российская Федерация]

Дополнительная информация

В oтличие oт бoльшинства пoгoдных сайтoв мы публикуем пoдрoбную метеoинфoрмацию в детальнoм прoфессиoнальнoм фoрмате.

Характеристики температуры и влажнoсти вoздуха измеряются на высoте 2 м в тени вдали oт зданий и деревьев.
Скoрoсть ветра измеряется на высoте 10 м (на урoвне рoста челoвека скoрoсть ветра ниже в 1.5-2 раза). Если метеoстанция нахoдится в гoрoде или в лесу, тo скoрoсть ветра занижена на 2-4 м/с пo сравнению с oткрытым местoм. Скoрoсть ветра над акватoриями крупных рек и oзёр, а также на вершинах хoлмoв на 2-5 м/с выше, чем в oбычных услoвиях.
Атмoсфернoе давление в разных тoчках местнoсти мoжет значительнo oтличаться oт давления на метеoстанции, в зависимoсти oт услoвий рельефа (при пoдъёме на 10 м давление пoнижается примернo на 1 мм рт.ст.).